Location: Gerlach
(40.6516°N, 119.3568°W)
Time: 17:24:59
(UTC-07:00)

ITAMSAT 1 - Pass Details

Date: 08 August 2024
Orbit: 782 x 795 km, 98.8° (Epoch: 14 September)

Event Time Altitude Azimuth Distance (km) Brightness Sun altitude
Exits shadow 21:12:06 14° 149° (SSE) 2,102 9.3 -12.3°
Maximum altitude 21:16:34 60° 72° (ENE) 905 7.8 -13.0°
Drops below altitude 10° 21:21:42 10° 354° (N) 2,370 10.7 -13.8°
Sets 21:24:04 0° 351° (N) 3,305 11.6 -14.2°
